Tacoma Narrows, WA
on Wednesday, January 30, 2013

Wednesday
Previous Day Next Day
Daily Summary
 ActualAverageRecord
Temperature
Mean Temperature °F °F  
Max Temperature 48°F 46°F 55°F (1998)
Min Temperature 46°F 38°F 34°F (2007)
Degree Days
Heating Degree Days 18    
Moisture
Dew Point 44°F   
Average Humidity 89    
Maximum Humidity 93    
Minimum Humidity 81    
Precipitation
Precipitation 0.06 in in in ()
Wind
Wind Speed 12 mph   
Max Wind Speed 16 mph   
Max Gust Speed 25 mph   
Visibility 9 miles   
Events Rain   
Averages and records for this station are not official NWS values.
Key: T is trace of precipitation, MM is missing value
Source: NWS Daily Summary
Seasonal Weather Averages
Time(PST)TemperatureDew PointHumidity Pressure Visibility Wind DirectionWind SpeedGust SpeedPrecipitationEvents Conditions
12:43 AM 46.4°F 41.0°F 81% 30.33 in 10.0 miles South 15.0 mph 23.0 mph N/A   Overcast
12:53 AM 46.0°F 41.0°F 83% 30.34 in 10.0 miles South 16.1 mph 24.2 mph N/A   Overcast
1:17 AM 46.4°F 42.8°F 87% 30.32 in 10.0 miles South 16.1 mph 25.3 mph N/A   Overcast
1:53 AM 46.0°F 42.1°F 86% 30.34 in 10.0 miles SSW 13.8 mph 21.9 mph N/A   Overcast
2:26 AM 46.4°F 42.8°F 87% 30.34 in 10.0 miles South 13.8 mph - N/A   Overcast
2:53 AM 46.0°F 42.1°F 86% 30.34 in 10.0 miles SSW 13.8 mph 20.7 mph N/A   Overcast
3:03 AM 46.4°F 42.8°F 87% 30.33 in 10.0 miles South 11.5 mph 19.6 mph N/A   Overcast
3:53 AM 46.9°F 43.0°F 86% 30.35 in 10.0 miles South 11.5 mph - N/A   Overcast
4:53 AM 46.9°F 43.0°F 86% 30.34 in 10.0 miles South 15.0 mph - N/A   Overcast
5:53 AM 46.9°F 43.0°F 86% 30.35 in 10.0 miles South 13.8 mph - 0.00 in Rain Light Rain
6:53 AM 46.0°F 44.1°F 93% 30.35 in 9.0 miles South 10.4 mph - 0.04 in Rain Light Rain
7:53 AM 46.0°F 44.1°F 93% 30.36 in 10.0 miles SSW 11.5 mph - 0.01 in   Overcast
8:53 AM 46.0°F 44.1°F 93% 30.38 in 10.0 miles South 11.5 mph - N/A   Overcast
9:53 AM 46.9°F 44.1°F 90% 30.38 in 10.0 miles South 10.4 mph - N/A   Overcast
10:53 AM 46.9°F 44.1°F 90% 30.39 in 10.0 miles South 8.1 mph - N/A   Overcast
11:53 AM 46.9°F 44.1°F 90% 30.39 in 10.0 miles South 9.2 mph - N/A   Overcast
12:53 PM 46.9°F 45.0°F 93% 30.38 in 10.0 miles SSW 8.1 mph - N/A   Overcast
1:53 PM 48.0°F 45.0°F 89% 30.38 in 10.0 miles South 9.2 mph - N/A   Overcast
2:53 PM 48.0°F 46.0°F 93% 30.37 in 10.0 miles South 8.1 mph - N/A   Overcast
3:53 PM 48.9°F 45.0°F 86% 30.38 in 10.0 miles SSW 8.1 mph - N/A   Overcast
4:53 PM 48.0°F 45.0°F 89% 30.38 in 10.0 miles SSW 8.1 mph - N/A   Overcast
5:53 PM 48.0°F 44.1°F 86% 30.38 in 10.0 miles SSW 6.9 mph - N/A   Overcast
6:53 PM 48.0°F 44.1°F 86% 30.37 in 10.0 miles SSW 5.8 mph - N/A   Overcast
7:53 PM 46.9°F 44.1°F 90% 30.37 in 6.0 miles SSW 5.8 mph - N/A   Overcast
8:00 PM 46.4°F 44.6°F 93% 30.36 in 6.0 miles SSW 6.9 mph - N/A   Overcast
8:53 PM 46.9°F 44.1°F 90% 30.38 in 6.0 miles SW 5.8 mph - N/A   Overcast
9:53 PM 46.9°F 44.1°F 90% 30.38 in 6.0 miles SSW 5.8 mph - N/A   Overcast
10:53 PM 46.9°F 44.1°F 90% 30.38 in 10.0 miles SSW 4.6 mph - 0.00 in   Overcast
11:53 PM 46.9°F 44.1°F 90% 30.38 in 5.0 miles SW 5.8 mph - 0.01 in   Overcast
Moon Phase
Jan. 30 Feb. 03 Feb. 10 Feb. 17 Feb. 25
Sunrise:07:37 AM (PST) Moon Rise:09:35 PM (PST)1/30
Sunset:05:09 PM (PST) Moon Set:08:50 AM (PST)1/30

Copyright © 2014 The Weather Underground, Inc.